User: anonymous   Login
Location: Campestrin
(46.4667°N, 11.7167°E)
Time: 16:00:58
(UTC+00:00)
Language:

Cosmos 1825 - Orbit

View from above orbital plane
View from above orbital plane
View from above satellite
View from above satellite

Ground track
Ground track

The orbit data is extracted from the following two-line orbital elements,

1 17566U 87024A   21168.76378498  .00000957  00000-0  42097-4 0  9993
2 17566  82.5051 278.9625 0004651 139.7335 220.4246 15.20656630875525
Epoch (UTC): 17 June 2021 18:19:51
Eccentricity: 0.0004651
inclination: 82.5051°
perigee height: 500 km
apogee height: 507 km
right ascension of ascending node: 278.9625°
argument of perigee: 139.7335°
revolutions per day: 15.20656630
mean anomaly at epoch: 220.4246°
orbit number at epoch: 87552

The dashed part of the orbit path shows where the satellite is in the earth's shadow,  

DLR